Theta_e
343 337 337 339 339 335 333 335 336 336 337 336 336 335 334 332 331 331 329 326 326 326
343 342 340 343 343 337 340 335 337 337 336 336 336 336 334 333 330 331 330 328 326 325
343 342 341 342 341 341 341 340 339 338 337 337 336 334 330 329 332 329 329 328 328 326
341 341 342 342 340 340 342 340 338 337 335 331 330 330 333 333 330 329 329 328 326 324
340 343 344 344 341 342 341 341 338 332 332 331 330 328 326 324 325 324 323 322 322 320
336 344 343 343 342 341 340 338 335 332 331 326 320 319 318 319 319 321 322 321 320 319
342 341 339 340 340 339 336 334 332 333 327 323 316 313 313 314 315 317 320 322 321 319
339 338 338 337 341 337 338 334 331 330 328 324 315 308 309 311 312 317 320 320 320 319
334 337 338 337 331 334 333 331 330 327 325 323 312 305 305 307 309 316 319 317 318 318
333 332 334 335 334 330 330 332 328 325 325 326 313 303 303 306 311 316 317 317 317 316
330 330 333 333 328 329 331 328 327 325 324 323 311 303 302 304 313 312 318 316 315 317
327 328 328 326 327 328 329 329 326 324 323 323 319 303 302 307 312 310 314 313 315 316
326 325 324 327 328 329 327 327 323 324 325 319 321 302 302 305 309 309 309 311 315 304
323 321 328 328 328 326 327 325 326 324 323 322 321 306 302 302 310 307 306 308 309 312
Wind_Speed
5 4 5 5 2 4 3 2 4 2 5 5 6 6 5 4 5 6 5 11 10 7
4 4 3 2 0 4 1 4 4 3 4 5 6 7 6 4 5 5 6 8 8 6
7 6 5 4 5 5 5 3 4 5 6 7 7 7 5 3 6 7 5 4 6 6
9 7 6 5 5 4 4 4 5 7 6 6 5 2 2 4 7 7 6 4 5 6
6 5 3 2 3 4 5 5 5 6 3 3 7 8 8 8 9 7 6 6 6 6
10 2 1 2 3 4 5 6 4 6 3 8 9 9 9 9 10 10 6 6 6 6
3 3 2 4 5 6 2 5 5 4 8 8 9 9 9 9 10 10 6 5 6 7
5 5 6 2 1 5 3 4 5 4 6 6 7 6 6 8 10 10 7 5 6 4
6 4 4 4 5 3 4 4 4 3 5 4 5 4 6 7 7 10 9 4 6 4
1 4 5 5 5 5 3 2 2 3 3 2 8 1 4 11 7 9 9 5 7 8
4 4 3 5 5 3 2 1 1 2 1 3 4 4 5 9 8 10 6 6 9 8
5 4 3 4 4 1 2 3 3 4 4 4 5 7 1 5 6 8 8 8 10 4
5 4 4 4 2 1 3 3 2 3 4 4 4 8 3 2 5 7 7 10 2 6
5 3 1 1 1 3 3 3 2 4 6 7 4 7 4 1 4 5 7 8 9 5
Wind_Direction
195 220 221 199 22 309 352 15 158 207 235 246 252 261 271 269 291 300 292 288 283 286
190 243 313 15 21 278 192 310 46 275 277 261 256 255 259 273 289 298 291 289 291 282
202 207 221 215 234 253 267 247 266 272 264 257 261 288 331 295 278 275 271 263 266 266
188 189 196 218 247 257 254 253 255 254 265 300 9 53 314 280 274 269 285 305 340 348
161 208 172 249 293 297 279 264 269 271 23 358 27 34 16 1 349 345 356 349 358 351
234 146 155 253 262 267 274 266 309 49 320 74 52 31 10 358 341 329 337 347 352 322
161 156 189 207 215 230 307 23 306 349 87 70 64 33 2 343 330 318 330 346 343 324
150 201 225 186 353 53 358 359 356 61 91 88 70 34 354 334 318 313 316 357 329 30
216 209 126 81 98 95 45 37 354 75 99 88 92 13 340 332 311 300 302 335 304 311
97 254 118 143 95 55 71 58 12 355 358 93 104 9 351 346 322 304 307 315 300 286
12 7 20 78 81 107 95 358 323 280 280 139 142 214 28 338 332 313 314 325 302 304
3 359 21 90 95 41 168 199 232 236 238 279 155 187 47 346 325 317 323 324 311 23
32 10 41 55 71 97 252 252 269 323 303 292 239 169 166 354 331 335 336 314 311 99
75 37 3 84 216 215 257 271 269 273 268 259 239 162 141 360 331 338 323 311 314 308